Time,TemperatureF,DewpointF,PressureIn,WindDirection,WindDirectionDegrees,WindSpeedMPH,WindSpeedGustMPH,Humidity,HourlyPrecipIn,Conditions,Clouds,dailyrainin,SoftwareType,DateUTC
2013-03-01 08:32:00,31.0,30.0,29.58,NE,47,9.0,20.0,95,0.00,,,0.10,,2013-03-01 13:32:00,
2013-03-01 08:42:00,31.0,30.0,29.58,NE,47,9.0,20.0,95,0.00,,,0.10,,2013-03-01 13:42:00,
2013-03-01 08:52:00,31.0,30.0,29.57,North,5,12.0,18.0,95,0.00,,,0.10,,2013-03-01 13:52:00,
2013-03-01 09:02:00,31.0,30.0,29.57,NNE,20,11.0,19.0,95,0.00,,,0.10,,2013-03-01 14:02:00,
2013-03-01 09:11:00,31.0,30.0,29.57,NNE,20,11.0,19.0,95,0.00,,,0.10,,2013-03-01 14:11:00,
2013-03-01 09:22:00,31.0,30.0,29.57,NNE,16,10.0,16.0,95,0.00,,,0.10,,2013-03-01 14:22:00,
2013-03-01 09:32:00,31.0,30.0,29.58,NNE,15,13.0,20.0,95,0.00,,,0.10,,2013-03-01 14:32:00,
2013-03-01 09:42:00,31.0,30.0,29.58,NNE,15,13.0,20.0,95,0.00,,,0.10,,2013-03-01 14:42:00,
2013-03-01 09:52:00,31.0,30.0,29.58,North,360,7.0,17.0,95,0.00,,,0.10,,2013-03-01 14:52:00,
2013-03-01 10:02:00,31.0,30.0,29.59,NNE,24,8.0,17.0,95,0.00,,,0.10,,2013-03-01 15:02:00,
2013-03-01 10:11:00,31.0,30.0,29.59,North,5,10.0,15.0,95,0.00,,,0.10,,2013-03-01 15:11:00,
2013-03-01 10:21:00,31.0,30.0,29.59,North,5,10.0,15.0,95,0.00,,,0.10,,2013-03-01 15:21:00,
2013-03-01 10:32:00,31.0,29.0,29.59,NNE,13,13.0,21.0,94,0.00,,,0.08,,2013-03-01 15:32:00,
2013-03-01 10:42:00,31.0,29.0,29.59,NNE,13,13.0,21.0,94,0.00,,,0.08,,2013-03-01 15:42:00,
2013-03-01 10:52:00,31.0,29.0,29.59,NNE,17,14.0,22.0,94,0.01,,,0.09,,2013-03-01 15:52:00,
2013-03-01 11:01:00,32.0,30.0,29.59,NNE,24,7.0,21.0,93,0.01,,,0.09,,2013-03-01 16:01:00,
2013-03-01 11:11:00,32.0,30.0,29.59,NNE,24,7.0,21.0,93,0.01,,,0.09,,2013-03-01 16:11:00,
2013-03-01 11:21:00,32.0,30.0,29.59,NNE,12,12.0,22.0,93,0.01,,,0.09,,2013-03-01 16:21:00,
2013-03-01 11:32:00,32.0,30.0,29.59,NE,39,11.0,22.0,92,0.02,,,0.09,,2013-03-01 16:32:00,
2013-03-01 11:42:00,32.0,30.0,29.59,NE,39,11.0,22.0,92,0.02,,,0.09,,2013-03-01 16:42:00,
2013-03-01 11:51:00,32.0,30.0,29.59,North,360,10.0,23.0,92,0.01,,,0.09,,2013-03-01 16:51:00,
2013-03-01 12:01:00,32.0,30.0,29.58,North,5,14.0,22.0,91,0.01,,,0.09,,2013-03-01 17:01:00,
2013-03-01 12:11:00,32.0,30.0,29.58,North,5,14.0,22.0,91,0.01,,,0.09,,2013-03-01 17:11:00,
2013-03-01 12:21:00,32.0,30.0,29.58,NNE,20,12.0,24.0,91,0.01,,,0.09,,2013-03-01 17:21:00,
2013-03-01 12:32:00,32.0,30.0,29.58,North,360,9.0,19.0,91,0.00,,,0.07,,2013-03-01 17:32:00,
2013-03-01 12:42:00,32.0,30.0,29.58,North,360,9.0,19.0,91,0.00,,,0.07,,2013-03-01 17:42:00,
2013-03-01 12:52:00,32.0,30.0,29.59,North,5,8.0,19.0,91,0.00,,,0.07,,2013-03-01 17:52:00,
2013-03-01 13:02:00,32.0,30.0,29.59,North,5,8.0,15.0,91,0.00,,,0.07,,2013-03-01 18:02:00,
2013-03-01 13:12:00,32.0,30.0,29.59,North,5,8.0,15.0,91,0.00,,,0.07,,2013-03-01 18:12:00,
2013-03-01 13:22:00,32.0,30.0,29.58,North,355,7.0,14.0,92,0.01,,,0.08,,2013-03-01 18:22:00,
2013-03-01 13:32:00,32.0,30.0,29.58,North,5,6.0,14.0,92,0.01,,,0.08,,2013-03-01 18:32:00,
2013-03-01 13:42:00,32.0,30.0,29.58,North,5,6.0,14.0,92,0.01,,,0.08,,2013-03-01 18:42:00,
2013-03-01 13:52:00,33.0,31.0,29.59,North,5,8.0,14.0,92,0.01,,,0.08,,2013-03-01 18:52:00,
2013-03-01 14:02:00,33.0,31.0,29.59,NNW,344,7.0,13.0,92,0.01,,,0.08,,2013-03-01 19:02:00,
2013-03-01 14:11:00,33.0,31.0,29.59,NNW,344,7.0,13.0,92,0.01,,,0.08,,2013-03-01 19:11:00,
2013-03-01 14:21:00,33.0,31.0,29.59,North,355,8.0,15.0,92,0.00,,,0.08,,2013-03-01 19:21:00,
2013-03-01 14:32:00,33.0,31.0,29.58,North,349,8.0,15.0,91,0.01,,,0.08,,2013-03-01 19:32:00,
2013-03-01 14:42:00,33.0,31.0,29.58,North,349,8.0,15.0,91,0.01,,,0.08,,2013-03-01 19:42:00,
2013-03-01 14:51:00,33.0,31.0,29.59,North,360,4.0,11.0,92,0.01,,,0.08,,2013-03-01 19:51:00,
2013-03-01 15:01:00,33.0,31.0,29.59,NNW,329,6.0,13.0,92,0.01,,,0.08,,2013-03-01 20:01:00,
2013-03-01 15:11:00,33.0,31.0,29.59,NNW,329,6.0,13.0,92,0.01,,,0.08,,2013-03-01 20:11:00,
2013-03-01 15:21:00,33.0,31.0,29.59,NNW,331,7.0,13.0,92,0.01,,,0.08,,2013-03-01 20:21:00,
2013-03-01 15:32:00,33.0,31.0,29.59,NNW,345,10.0,15.0,92,0.00,,,0.07,,2013-03-01 20:32:00,
2013-03-01 15:42:00,33.0,31.0,29.59,NNW,345,10.0,15.0,92,0.00,,,0.07,,2013-03-01 20:42:00,
2013-03-01 15:52:00,33.0,31.0,29.59,NNW,341,6.0,15.0,92,0.00,,,0.07,,2013-03-01 20:52:00,
2013-03-01 16:02:00,33.0,31.0,29.59,NNE,13,9.0,15.0,92,0.00,,,0.07,,2013-03-01 21:02:00,
2013-03-01 16:11:00,33.0,31.0,29.59,NNW,340,8.0,16.0,92,0.00,,,0.07,,2013-03-01 21:11:00,
2013-03-01 16:21:00,33.0,31.0,29.59,NNW,340,8.0,16.0,92,0.00,,,0.07,,2013-03-01 21:21:00,
2013-03-01 16:32:00,32.0,30.0,29.59,North,355,10.0,16.0,92,0.01,,,0.07,,2013-03-01 21:32:00,
2013-03-01 16:42:00,32.0,30.0,29.60,NE,36,6.0,14.0,92,0.01,,,0.07,,2013-03-01 21:42:00,
2013-03-01 16:52:00,32.0,30.0,29.60,NE,36,6.0,14.0,92,0.01,,,0.07,,2013-03-01 21:52:00,
2013-03-01 17:01:00,32.0,30.0,29.60,North,5,7.0,14.0,93,0.01,,,0.07,,2013-03-01 22:01:00,
2013-03-01 17:11:00,32.0,30.0,29.61,NNE,29,7.0,13.0,93,0.01,,,0.07,,2013-03-01 22:11:00,
2013-03-01 17:22:00,32.0,30.0,29.61,NNE,29,7.0,13.0,93,0.01,,,0.07,,2013-03-01 22:22:00,
2013-03-01 17:32:00,32.0,30.0,29.61,NW,317,8.0,15.0,93,0.00,,,0.06,,2013-03-01 22:32:00,
2013-03-01 17:42:00,32.0,30.0,29.61,NW,317,8.0,15.0,93,0.00,,,0.06,,2013-03-01 22:42:00,
2013-03-01 17:51:00,32.0,30.0,29.62,NNW,330,7.0,17.0,93,0.00,,,0.06,,2013-03-01 22:51:00,
2013-03-01 18:01:00,32.0,30.0,29.62,NNW,336,7.0,14.0,93,0.00,,,0.06,,2013-03-01 23:01:00,
2013-03-01 18:11:00,32.0,30.0,29.62,NNW,336,7.0,14.0,93,0.00,,,0.06,,2013-03-01 23:11:00,
2013-03-01 18:21:00,32.0,30.0,29.62,North,355,7.0,14.0,93,0.00,,,0.06,,2013-03-01 23:21:00,
2013-03-01 18:32:00,31.0,29.0,29.63,NNE,17,7.0,11.0,93,0.00,,,0.06,,2013-03-01 23:32:00,
2013-03-01 18:41:00,31.0,29.0,29.63,NNE,17,7.0,11.0,93,0.00,,,0.06,,2013-03-01 23:41:00,
2013-03-01 18:52:00,31.0,29.0,29.63,NW,318,7.0,14.0,93,0.00,,,0.06,,2013-03-01 23:52:00,
2013-03-01 19:02:00,31.0,29.0,29.62,NNW,347,7.0,14.0,93,0.00,,,0.06,,2013-03-02 00:02:00,
2013-03-01 19:12:00,31.0,29.0,29.62,NNW,347,7.0,14.0,93,0.00,,,0.06,,2013-03-02 00:12:00,
2013-03-01 19:22:00,31.0,29.0,29.62,NNW,338,9.0,13.0,93,0.00,,,0.06,,2013-03-02 00:22:00,
2013-03-01 19:32:00,31.0,29.0,29.62,NNW,338,9.0,13.0,93,0.00,,,0.06,,2013-03-02 00:32:00,
2013-03-01 19:42:00,31.0,29.0,29.62,NNW,338,9.0,13.0,93,0.00,,,0.06,,2013-03-02 00:42:00,
2013-03-01 19:52:00,31.0,29.0,29.62,NNW,338,9.0,13.0,93,0.00,,,0.06,,2013-03-02 00:52:00,